EN

Hourly Weather Kyzylzhar (Saryagashskiy rayon)

Today, 3 August, Tuesday

Time Temperature Precipitation Wind Pressure Humidity
00:00 +28°C° 0 mm 3 mps 713 mmHg 29%
01:00 +28°C° 0 mm 2 mps 713 mmHg 30%
02:00 +27°C° 0 mm 2 mps 713 mmHg 31%
03:00 +27°C° 0 mm 2 mps 713 mmHg 31%
04:00 +27°C° 0 mm 2 mps 713 mmHg 31%
05:00 +26°C° 0 mm 2 mps 713 mmHg 31%
06:00 +29°C° 0 mm 2 mps 714 mmHg 28%
07:00 +31°C° 0 mm 2 mps 714 mmHg 24%
08:00 +34°C° 0 mm 2 mps 715 mmHg 21%
09:00 +36°C° 0 mm 2 mps 715 mmHg 18%
10:00 +38°C° 0 mm 3 mps 715 mmHg 16%
11:00 +39°C° 0 mm 3 mps 715 mmHg 13%
12:00 +40°C° 0 mm 3 mps 715 mmHg 11%
13:00 +42°C° 0 mm 3 mps 714 mmHg 10%
14:00 +43°C° 0 mm 3 mps 714 mmHg 8%
15:00 +43°C° 0 mm 3 mps 714 mmHg 8%
16:00 +43°C° 0 mm 3 mps 713 mmHg 7%
17:00 +43°C° 0 mm 3 mps 713 mmHg 7%
18:00 +40°C° 0 mm 2 mps 713 mmHg 8%
19:00 +37°C° 0 mm 2 mps 713 mmHg 9%
20:00 +35°C° 0 mm 2 mps 713 mmHg 11%
21:00 +34°C° 0 mm 2 mps 713 mmHg 16%
22:00 +31°C° 0 mm 2 mps 713 mmHg 20%
23:00 +30°C° 0 mm 2 mps 713 mmHg 25%

Tomorrow, 4 August, Wednesday

Time Temperature Precipitation Wind Pressure Humidity
00:00 +29°C° 0 mm 2 mps 713 mmHg 26%
01:00 +29°C° 0 mm 2 mps 713 mmHg 26%
02:00 +29°C° 0 mm 2 mps 713 mmHg 27%
03:00 +28°C° 0 mm 2 mps 713 mmHg 26%
04:00 +28°C° 0 mm 2 mps 713 mmHg 25%
05:00 +28°C° 0 mm 2 mps 713 mmHg 25%
06:00 +30°C° 0 mm 2 mps 714 mmHg 22%
07:00 +32°C° 0 mm 1 mps 714 mmHg 19%
08:00 +34°C° 0 mm 1 mps 715 mmHg 16%
09:00 +35°C° 0 mm 1 mps 715 mmHg 15%
10:00 +38°C° 0 mm 2 mps 715 mmHg 14%
11:00 +40°C° 0 mm 2 mps 715 mmHg 13%
12:00 +41°C° 0 mm 2 mps 715 mmHg 11%
13:00 +43°C° 0 mm 3 mps 714 mmHg 10%
14:00 +44°C° 0 mm 3 mps 714 mmHg 8%
15:00 +44°C° 0 mm 4 mps 714 mmHg 8%
16:00 +44°C° 0 mm 4 mps 713 mmHg 7%
17:00 +45°C° 0 mm 5 mps 713 mmHg 7%
18:00 +42°C° 0 mm 4 mps 713 mmHg 9%
19:00 +40°C° 0 mm 4 mps 713 mmHg 12%
20:00 +36°C° 0 mm 4 mps 713 mmHg 15%
21:00 +35°C° 0 mm 4 mps 713 mmHg 18%
22:00 +34°C° 0 mm 3 mps 713 mmHg 20%
23:00 +31°C° 0 mm 3 mps 714 mmHg 23%

Day after tomorrow, 5 August, Thursday

Time Temperature Precipitation Wind Pressure Humidity
00:00 +31°C° 0 mm 3 mps 713 mmHg 24%
01:00 +30°C° 0 mm 3 mps 713 mmHg 24%
02:00 +30°C° 0 mm 3 mps 713 mmHg 24%
03:00 +30°C° 0 mm 3 mps 713 mmHg 24%
04:00 +29°C° 0 mm 2 mps 713 mmHg 25%
05:00 +29°C° 0 mm 2 mps 713 mmHg 25%
06:00 +30°C° 0 mm 2 mps 714 mmHg 22%
07:00 +32°C° 0 mm 2 mps 714 mmHg 20%
08:00 +34°C° 0 mm 3 mps 715 mmHg 18%
09:00 +36°C° 0 mm 3 mps 715 mmHg 16%
10:00 +38°C° 0 mm 3 mps 714 mmHg 14%
11:00 +40°C° 0 mm 3 mps 714 mmHg 12%
12:00 +42°C° 0 mm 3 mps 714 mmHg 12%
13:00 +43°C° 0 mm 3 mps 714 mmHg 11%
14:00 +43°C° 0 mm 2 mps 713 mmHg 10%
15:00 +44°C° 0 mm 3 mps 713 mmHg 9%
16:00 +44°C° 0 mm 4 mps 713 mmHg 9%
17:00 +44°C° 0 mm 4 mps 712 mmHg 9%
18:00 +42°C° 0 mm 5 mps 712 mmHg 11%
19:00 +40°C° 0 mm 6 mps 712 mmHg 14%
20:00 +38°C° 0 mm 7 mps 712 mmHg 16%
21:00 +35°C° 0 mm 6 mps 712 mmHg 19%
22:00 +33°C° 0 mm 5 mps 712 mmHg 22%
23:00 +32°C° 0 mm 5 mps 712 mmHg 25%

6 August, Friday

Time Temperature Precipitation Wind Pressure Humidity
00:00 +30°C° 0 mm 4 mps 712 mmHg 27%
01:00 +29°C° 0 mm 3 mps 712 mmHg 28%
02:00 +28°C° 0 mm 3 mps 712 mmHg 30%
03:00 +28°C° 0 mm 2 mps 712 mmHg 30%
04:00 +27°C° 0 mm 2 mps 713 mmHg 30%
05:00 +27°C° 0 mm 2 mps 713 mmHg 30%
06:00 +28°C° 0 mm 2 mps 713 mmHg 27%
07:00 +30°C° 0 mm 3 mps 713 mmHg 24%
08:00 +31°C° 0 mm 3 mps 714 mmHg 22%
09:00 +34°C° 0 mm 3 mps 714 mmHg 20%
10:00 +36°C° 0 mm 3 mps 714 mmHg 18%
11:00 +38°C° 0 mm 2 mps 714 mmHg 16%
12:00 +39°C° 0 mm 2 mps 714 mmHg 14%
13:00 +40°C° 0 mm 2 mps 714 mmHg 13%
14:00 +42°C° 0 mm 2 mps 713 mmHg 11%
15:00 +43°C° 0 mm 3 mps 713 mmHg 10%
16:00 +43°C° 0 mm 4 mps 713 mmHg 10%
17:00 +43°C° 0 mm 4 mps 713 mmHg 9%
18:00 +41°C° 0 mm 5 mps 713 mmHg 11%
19:00 +39°C° 0 mm 5 mps 713 mmHg 12%
20:00 +36°C° 0 mm 6 mps 713 mmHg 14%
21:00 +35°C° 0 mm 5 mps 713 mmHg 15%
22:00 +33°C° 0 mm 5 mps 713 mmHg 17%
23:00 +32°C° 0 mm 4 mps 712 mmHg 19%

7 August, Saturday

Time Temperature Precipitation Wind Pressure Humidity
00:00 +30°C° 0 mm 3 mps 712 mmHg 20%
01:00 +29°C° 0 mm 3 mps 712 mmHg 21%
02:00 +28°C° 0 mm 2 mps 712 mmHg 23%
03:00 +27°C° 0 mm 2 mps 713 mmHg 23%
04:00 +27°C° 0 mm 2 mps 713 mmHg 24%
05:00 +26°C° 0 mm 2 mps 713 mmHg 24%
06:00 +28°C° 0 mm 2 mps 714 mmHg 22%
07:00 +30°C° 0 mm 2 mps 714 mmHg 19%
08:00 +31°C° 0 mm 2 mps 715 mmHg 17%
09:00 +35°C° 0 mm 2 mps 715 mmHg 15%
10:00 +37°C° 0 mm 3 mps 715 mmHg 13%
11:00 +39°C° 0 mm 3 mps 715 mmHg 12%
12:00 +40°C° 0 mm 3 mps 715 mmHg 11%
13:00 +42°C° 0 mm 3 mps 715 mmHg 10%
14:00 +43°C° 0 mm 4 mps 714 mmHg 9%
15:00 +43°C° 0 mm 4 mps 714 mmHg 9%
16:00 +42°C° 0 mm 4 mps 714 mmHg 9%
17:00 +42°C° 0 mm 4 mps 714 mmHg 9%
18:00 +40°C° 0 mm 4 mps 714 mmHg 10%
19:00 +37°C° 0 mm 3 mps 714 mmHg 12%
20:00 +34°C° 0 mm 3 mps 714 mmHg 13%
21:00 +32°C° 0 mm 2 mps 714 mmHg 14%
22:00 +31°C° 0 mm 2 mps 714 mmHg 15%
23:00 +30°C° 0 mm 1 mps 714 mmHg 16%

8 August, Sunday

Time Temperature Precipitation Wind Pressure Humidity
00:00 +30°C° 0 mm 2 mps 714 mmHg 17%
01:00 +29°C° 0 mm 2 mps 714 mmHg 18%
02:00 +28°C° 0 mm 2 mps 714 mmHg 18%
03:00 +28°C° 0 mm 2 mps 714 mmHg 19%
04:00 +27°C° 0 mm 2 mps 715 mmHg 19%
05:00 +27°C° 0 mm 3 mps 715 mmHg 20%
06:00 +29°C° 0 mm 3 mps 716 mmHg 19%
07:00 +30°C° 0 mm 3 mps 716 mmHg 18%
08:00 +33°C° 0 mm 4 mps 717 mmHg 17%
09:00 +35°C° 0 mm 4 mps 717 mmHg 15%
10:00 +37°C° 0 mm 4 mps 717 mmHg 13%
11:00 +40°C° 0 mm 4 mps 717 mmHg 12%
12:00 +40°C° 0 mm 3 mps 717 mmHg 11%
13:00 +42°C° 0 mm 3 mps 717 mmHg 9%
14:00 +42°C° 0 mm 2 mps 716 mmHg 8%
15:00 +42°C° 0 mm 2 mps 716 mmHg 8%
16:00 +43°C° 0 mm 3 mps 716 mmHg 8%
17:00 +43°C° 0 mm 3 mps 716 mmHg 7%
18:00 +40°C° 0 mm 3 mps 716 mmHg 9%
19:00 +38°C° 0 mm 3 mps 716 mmHg 11%
20:00 +35°C° 0 mm 3 mps 716 mmHg 12%
21:00 +34°C° 0 mm 3 mps 717 mmHg 14%
22:00 +33°C° 0 mm 3 mps 717 mmHg 16%
23:00 +32°C° 0 mm 4 mps 717 mmHg 18%
Show more